| time (UTC) | temp F | wind direction | speed knots | gust knots | rain 1hr in | rain 24hr in | rain mn in | humidity % | barometer mb |
| 20260505224143 | 83 | 95 | 2.6 | 7.0 | 0.00 | 0.00 | 0.00 | 83 | 1010.9 |
| 20260505223536 | 84 | 50 | 5.2 | 7.8 | 0.00 | 0.00 | 0.00 | 81 | 1010.9 |
| 20260505223032 | 84 | 50 | 5.2 | 7.8 | 0.00 | 0.00 | 0.00 | 81 | 1010.9 |
| 20260505222529 | 84 | 52 | 2.6 | 7.0 | 0.00 | 0.00 | 0.00 | 81 | 1010.9 |
| 20260505222025 | 84 | 44 | 3.5 | 5.2 | 0.00 | 0.00 | 0.00 | 81 | 1010.9 |
| 20260505221523 | 84 | 76 | 0.9 | 1.7 | 0.00 | 0.00 | 0.00 | 82 | 1010.9 |
| 20260505221019 | 84 | 70 | 1.7 | 4.3 | 0.00 | 0.00 | 0.00 | 82 | 1010.9 |
| 20260505220516 | 84 | 92 | 2.6 | 5.2 | 0.00 | 0.00 | 0.00 | 82 | 1010.9 |
| 20260505220014 | 83 | 127 | 0.0 | 1.7 | 0.00 | 0.00 | 0.00 | 82 | 1010.9 |
| 20260505215512 | 83 | 92 | 4.3 | 6.1 | 0.00 | 0.00 | 0.00 | 82 | 1010.9 |
| 20260505215009 | 83 | 64 | 2.6 | 6.1 | 0.00 | 0.00 | 0.00 | 82 | 1010.9 |
| 20260505214508 | 83 | 40 | 0.9 | 1.7 | 0.00 | 0.00 | 0.00 | 82 | 1010.9 |
| 20260505214004 | 83 | 34 | 5.2 | 11.3 | 0.00 | 0.00 | 0.00 | 81 | 1010.9 |
| 20260505213502 | 83 | 56 | 1.7 | 6.1 | 0.00 | 0.00 | 0.00 | 80 | 1010.6 |
| 20260505212958 | 83 | 133 | 0.0 | 3.5 | 0.00 | 0.00 | 0.00 | 80 | 1010.6 |
| 20260505212454 | 83 | 133 | 0.0 | 0.9 | 0.00 | 0.00 | 0.00 | 80 | 1010.6 |
| 20260505211951 | 83 | 133 | 0.0 | 0.9 | 0.00 | 0.00 | 0.00 | 80 | 1010.6 |
| 20260505211449 | 83 | 95 | 0.0 | 1.7 | 0.00 | 0.00 | 0.00 | 81 | 1010.6 |
| 20260505210945 | 83 | 131 | 0.9 | 3.5 | 0.00 | 0.00 | 0.00 | 81 | 1010.6 |
| 20260505210442 | 83 | 32 | 0.9 | 3.5 | 0.00 | 0.00 | 0.00 | 81 | 1010.2 |
| 20260505205939 | 83 | 23 | 2.6 | 5.2 | 0.00 | 0.00 | 0.00 | 81 | 1010.2 |
| 20260505205437 | 83 | 59 | 1.7 | 3.5 | 0.00 | 0.00 | 0.00 | 80 | 1010.2 |
| 20260505204933 | 83 | 56 | 0.9 | 5.2 | 0.00 | 0.00 | 0.00 | 80 | 1010.2 |
| 20260505204432 | 83 | 52 | 1.7 | 5.2 | 0.00 | 0.00 | 0.00 | 80 | 1010.2 |
| 20260505203929 | 83 | 53 | 1.7 | 5.2 | 0.00 | 0.00 | 0.00 | 79 | 1010.2 |
| 20260505203425 | 83 | 60 | 0.9 | 3.5 | 0.00 | 0.00 | 0.00 | 79 | 1010.2 |
| 20260505202921 | 83 | 47 | 3.5 | 6.1 | 0.00 | 0.00 | 0.00 | 79 | 1009.9 |
| 20260505202418 | 83 | 48 | 1.7 | 5.2 | 0.00 | 0.00 | 0.00 | 79 | 1009.9 |
| 20260505201914 | 83 | 48 | 1.7 | 5.2 | 0.00 | 0.00 | 0.00 | 79 | 1009.9 |
| 20260505201411 | 83 | 72 | 0.9 | 2.6 | 0.00 | 0.00 | 0.00 | 79 | 1009.9 |
| 20260505200910 | 83 | 72 | 0.9 | 3.5 | 0.00 | 0.00 | 0.00 | 79 | 1009.9 |
| 20260505200406 | 83 | 58 | 2.6 | 4.3 | 0.00 | 0.00 | 0.00 | 78 | 1009.9 |
| 20260505195902 | 83 | 49 | 2.6 | 6.1 | 0.00 | 0.00 | 0.00 | 78 | 1009.5 |
| 20260505195359 | 83 | 120 | 3.5 | 8.7 | 0.00 | 0.00 | 0.00 | 79 | 1009.5 |
| 20260505194856 | 83 | 91 | 2.6 | 5.2 | 0.00 | 0.00 | 0.00 | 79 | 1009.5 |
| 20260505194354 | 83 | 91 | 2.6 | 5.2 | 0.00 | 0.00 | 0.00 | 79 | 1009.5 |
| 20260505193854 | 82 | 64 | 4.3 | 8.7 | 0.00 | 0.00 | 0.00 | 79 | 1009.5 |
| 20260505193352 | 82 | 109 | 3.5 | 6.1 | 0.00 | 0.00 | 0.00 | 79 | 1009.5 |
| 20260505192850 | 82 | 42 | 2.6 | 5.2 | 0.00 | 0.00 | 0.00 | 80 | 1009.5 |
| 20260505192348 | 82 | 36 | 2.6 | 8.7 | 0.00 | 0.00 | 0.00 | 80 | 1009.5 |
| 20260505191845 | 82 | 128 | 1.7 | 5.2 | 0.00 | 0.00 | 0.00 | 80 | 1009.5 |
| 20260505191344 | 82 | 73 | 1.7 | 3.5 | 0.00 | 0.00 | 0.00 | 80 | 1009.5 |
| 20260505190840 | 82 | 103 | 3.5 | 9.6 | 0.00 | 0.00 | 0.00 | 80 | 1009.5 |
| 20260505190335 | 82 | 37 | 2.6 | 4.3 | 0.00 | 0.00 | 0.00 | 80 | 1009.5 |
| 20260505185831 | 82 | 129 | 3.5 | 6.1 | 0.00 | 0.00 | 0.00 | 80 | 1009.5 |
| 20260505185328 | 82 | 63 | 1.7 | 5.2 | 0.00 | 0.00 | 0.00 | 80 | 1009.5 |
| 20260505184824 | 82 | 2 | 0.9 | 4.3 | 0.00 | 0.00 | 0.00 | 80 | 1009.5 |
| 20260505184321 | 82 | 122 | 1.7 | 3.5 | 0.00 | 0.00 | 0.00 | 81 | 1009.2 |
| 20260505183818 | 82 | 39 | 1.7 | 3.5 | 0.00 | 0.00 | 0.00 | 81 | 1009.2 |
| 20260505183315 | 82 | 47 | 5.2 | 7.0 | 0.00 | 0.00 | 0.00 | 80 | 1009.2 |
| 20260505182812 | 82 | 81 | 1.7 | 4.3 | 0.00 | 0.00 | 0.00 | 80 | 1009.5 |
| 20260505182309 | 82 | 97 | 3.5 | 6.1 | 0.00 | 0.00 | 0.00 | 80 | 1009.5 |
| 20260505181805 | 82 | 79 | 4.3 | 9.6 | 0.00 | 0.00 | 0.00 | 80 | 1009.5 |
| 20260505181303 | 82 | 62 | 5.2 | 10.4 | 0.00 | 0.00 | 0.00 | 81 | 1009.2 |
| 20260505180759 | 82 | 128 | 1.7 | 3.5 | 0.00 | 0.00 | 0.00 | 82 | 1009.2 |
| 20260505180255 | 82 | 46 | 4.3 | 7.8 | 0.00 | 0.00 | 0.00 | 82 | 1009.2 |
| 20260505175752 | 82 | 80 | 3.5 | 6.1 | 0.00 | 0.00 | 0.00 | 82 | 1009.2 |
| 20260505175249 | 82 | 53 | 3.5 | 8.7 | 0.00 | 0.00 | 0.00 | 82 | 1009.2 |
| 20260505174745 | 82 | 104 | 1.7 | 4.3 | 0.00 | 0.00 | 0.00 | 82 | 1009.2 |
| 20260505174242 | 82 | 48 | 2.6 | 6.1 | 0.00 | 0.00 | 0.00 | 82 | 1009.2 |
| 20260505173738 | 82 | 83 | 2.6 | 8.7 | 0.00 | 0.00 | 0.00 | 82 | 1009.2 |
| 20260505173235 | 82 | 56 | 0.9 | 3.5 | 0.00 | 0.00 | 0.00 | 82 | 1009.5 |
| 20260505172732 | 82 | 46 | 1.7 | 3.5 | 0.00 | 0.00 | 0.00 | 82 | 1009.5 |
| 20260505172229 | 82 | 43 | 1.7 | 4.3 | 0.00 | 0.00 | 0.00 | 82 | 1009.5 |
| 20260505171729 | 82 | 61 | 3.5 | 7.8 | 0.00 | 0.00 | 0.00 | 83 | 1009.5 |
| 20260505171226 | 82 | 97 | 3.5 | 7.8 | 0.00 | 0.00 | 0.00 | 83 | 1009.5 |
| 20260505170723 | 82 | 97 | 3.5 | 7.8 | 0.00 | 0.00 | 0.00 | 83 | 1009.5 |
| 20260505170220 | 82 | 87 | 4.3 | 8.7 | 0.00 | 0.00 | 0.00 | 83 | 1009.5 |
| 20260505165715 | 82 | 37 | 4.3 | 7.8 | 0.00 | 0.00 | 0.00 | 83 | 1009.5 |
| 20260505165211 | 82 | 36 | 3.5 | 11.3 | 0.00 | 0.00 | 0.00 | 84 | 1009.5 |
| 20260505164707 | 81 | 46 | 6.1 | 9.6 | 0.00 | 0.00 | 0.00 | 85 | 1009.5 |
| 20260505164205 | 81 | 47 | 3.5 | 6.1 | 0.00 | 0.00 | 0.00 | 85 | 1009.5 |
| 20260505163703 | 81 | 46 | 3.5 | 6.1 | 0.00 | 0.00 | 0.00 | 85 | 1009.5 |
| 20260505163201 | 81 | 50 | 2.6 | 4.3 | 0.00 | 0.00 | 0.00 | 86 | 1009.5 |
| 20260505162658 | 81 | 50 | 4.3 | 7.8 | 0.00 | 0.00 | 0.00 | 86 | 1009.5 |
| 20260505162155 | 81 | 36 | 4.3 | 7.8 | 0.00 | 0.00 | 0.00 | 86 | 1009.5 |
| 20260505161651 | 81 | 42 | 2.6 | 7.0 | 0.00 | 0.00 | 0.00 | 86 | 1009.5 |
| 20260505161149 | 81 | 80 | 0.9 | 1.7 | 0.00 | 0.00 | 0.00 | 86 | 1009.9 |
| 20260505160647 | 81 | 87 | 1.7 | 3.5 | 0.00 | 0.00 | 0.00 | 85 | 1009.9 |
| 20260505160144 | 81 | 88 | 1.7 | 2.6 | 0.00 | 0.00 | 0.00 | 85 | 1009.9 |
| 20260505153123 | 81 | 21 | 1.7 | 3.5 | 0.00 | 0.00 | 0.00 | 84 | 1009.9 |
| 20260505152620 | 81 | 58 | 1.7 | 4.3 | 0.00 | 0.00 | 0.00 | 84 | 1009.9 |
| 20260505152116 | 81 | 35 | 3.5 | 6.1 | 0.00 | 0.00 | 0.00 | 84 | 1009.9 |
| 20260505151611 | 81 | 26 | 1.7 | 3.5 | 0.00 | 0.00 | 0.00 | 84 | 1010.2 |
| 20260505151109 | 81 | 15 | 2.6 | 6.1 | 0.00 | 0.00 | 0.00 | 84 | 1010.2 |
| 20260505150605 | 81 | 47 | 2.6 | 3.5 | 0.00 | 0.00 | 0.00 | 84 | 1010.2 |
| 20260505140334 | 81 | 36 | 3.5 | 6.1 | 0.00 | 0.00 | 0.00 | 85 | 1011.2 |
| 20260505130257 | 80 | 333 | 0.0 | 2.6 | 0.00 | 0.00 | 0.00 | 84 | 1012.3 |
| 20260505124748 | 80 | 89 | 3.5 | 5.2 | 0.00 | 0.51 | 0.51 | 83 | 1012.3 |
| 20260505124245 | 80 | 50 | 2.6 | 6.1 | 0.00 | 0.51 | 0.51 | 83 | 1012.3 |
| 20260505123740 | 80 | 57 | 4.3 | 9.6 | 0.00 | 0.51 | 0.51 | 83 | 1012.3 |
| 20260505123237 | 80 | 68 | 4.3 | 8.7 | 0.00 | 0.51 | 0.51 | 83 | 1012.3 |
| 20260505122734 | 80 | 83 | 7.0 | 14.8 | 0.00 | 0.51 | 0.51 | 84 | 1012.6 |
| 20260505122231 | 80 | 116 | 4.3 | 8.7 | 0.00 | 0.51 | 0.51 | 86 | 1012.6 |
| 20260505121728 | 80 | 96 | 4.3 | 9.6 | 0.00 | 0.51 | 0.51 | 86 | 1012.6 |
| 20260505121224 | 80 | 90 | 6.1 | 12.2 | 0.00 | 0.51 | 0.51 | 86 | 1012.6 |
| 20260505120721 | 80 | 50 | 5.2 | 12.2 | 0.00 | 0.51 | 0.51 | 86 | 1012.6 |
| 20260505120217 | 80 | 46 | 4.3 | 9.6 | 0.00 | 0.51 | 0.51 | 86 | 1013.0 |
| 20260505115715 | 80 | 57 | 5.2 | 11.3 | 0.00 | 0.51 | 0.51 | 86 | 1013.0 |
| 20260505115214 | 80 | 39 | 7.8 | 13.0 | 0.00 | 0.51 | 0.51 | 86 | 1013.0 |
| 20260505114711 | 81 | 73 | 3.5 | 10.4 | 0.00 | 0.51 | 0.51 | 86 | 1013.0 |
| 20260505114206 | 81 | 39 | 7.0 | 13.0 | 0.00 | 0.51 | 0.51 | 86 | 1013.0 |
| 20260505113703 | 81 | 39 | 7.0 | 18.2 | 0.00 | 0.51 | 0.51 | 86 | 1013.0 |
| 20260505113200 | 81 | 40 | 6.1 | 9.6 | 0.00 | 0.51 | 0.51 | 86 | 1013.0 |
| 20260505112656 | 81 | 53 | 5.2 | 13.0 | 0.00 | 0.51 | 0.51 | 86 | 1012.6 |
| 20260505112154 | 81 | 95 | 5.2 | 13.0 | 0.00 | 0.51 | 0.51 | 86 | 1012.6 |
| 20260505111653 | 81 | 41 | 2.6 | 5.2 | 0.00 | 0.51 | 0.51 | 86 | 1012.6 |
| 20260505111149 | 81 | 42 | 1.7 | 7.0 | 0.47 | 0.49 | 0.49 | 85 | 1012.6 |
| 20260505110646 | 81 | 44 | 5.2 | 13.0 | 0.00 | 0.49 | 0.49 | 84 | 1012.6 |
| 20260505110143 | 82 | 45 | 5.2 | 13.0 | 0.00 | 0.49 | 0.49 | 82 | 1012.6 |
| 20260505102119 | 82 | 44 | 2.6 | 5.2 | 0.00 | 0.49 | 0.49 | 83 | 1012.3 |
| 20260505101618 | 82 | 71 | 3.5 | 7.0 | 0.00 | 0.49 | 0.49 | 83 | 1012.3 |
| 20260505101113 | 81 | 62 | 1.7 | 3.5 | 0.00 | 0.49 | 0.49 | 84 | 1011.9 |
| 20260505100610 | 81 | 60 | 1.7 | 5.2 | 0.00 | 0.49 | 0.49 | 84 | 1011.9 |
| 20260505100107 | 81 | 92 | 1.7 | 7.0 | 0.00 | 0.49 | 0.49 | 84 | 1011.9 |
| 20260505095603 | 81 | 104 | 1.7 | 6.1 | 0.00 | 0.49 | 0.49 | 84 | 1011.9 |
| 20260505095100 | 81 | 43 | 3.5 | 7.8 | 0.00 | 0.49 | 0.49 | 85 | 1011.6 |
| 20260505094556 | 81 | 46 | 0.9 | 3.5 | 0.00 | 0.49 | 0.49 | 85 | 1011.9 |
| 20260505094052 | 81 | 105 | 2.6 | 5.2 | 0.00 | 0.49 | 0.49 | 85 | 1011.9 |
| 20260505093549 | 81 | 99 | 3.5 | 7.0 | 0.00 | 0.49 | 0.49 | 86 | 1011.9 |
| 20260505093046 | 81 | 43 | 4.3 | 7.0 | 0.00 | 0.49 | 0.49 | 86 | 1011.9 |
| 20260505092544 | 81 | 97 | 2.6 | 5.2 | 0.00 | 0.49 | 0.49 | 87 | 1011.9 |
| 20260505092042 | 81 | 48 | 2.6 | 7.0 | 0.00 | 0.49 | 0.49 | 87 | 1011.9 |
| 20260505091538 | 81 | 67 | 2.6 | 6.1 | 0.00 | 0.49 | 0.49 | 86 | 1011.6 |
| 20260505091037 | 81 | 96 | 4.3 | 7.8 | 0.00 | 0.49 | 0.49 | 86 | 1011.6 |
| 20260505090534 | 81 | 114 | 3.5 | 10.4 | 0.00 | 0.49 | 0.49 | 85 | 1011.6 |
| 20260505090032 | 82 | 67 | 7.8 | 18.2 | 4.72 | 0.38 | 0.38 | 82 | 1011.2 |
| 20260505085530 | 83 | 45 | 2.6 | 7.0 | 0.00 | 0.36 | 0.36 | 81 | 1011.2 |
| 20260505085028 | 83 | 62 | 1.7 | 5.2 | 0.00 | 0.36 | 0.36 | 80 | 1011.2 |
| 20260505084526 | 83 | 52 | 1.7 | 5.2 | 0.00 | 0.36 | 0.36 | 80 | 1011.2 |
| 20260505084023 | 83 | 56 | 1.7 | 3.5 | 0.00 | 0.36 | 0.36 | 79 | 1011.2 |
| 20260505083520 | 83 | 78 | 1.7 | 3.5 | 0.00 | 0.36 | 0.36 | 79 | 1011.2 |
| 20260505083017 | 83 | 76 | 0.9 | 2.6 | 0.00 | 0.36 | 0.36 | 79 | 1011.2 |
| 20260505082512 | 83 | 87 | 3.5 | 8.7 | 0.00 | 0.36 | 0.36 | 80 | 1011.2 |
| 20260505082009 | 83 | 98 | 3.5 | 7.0 | 0.00 | 0.36 | 0.36 | 81 | 1011.2 |
| 20260505081506 | 83 | 144 | 1.7 | 3.5 | 0.00 | 0.36 | 0.36 | 79 | 1010.9 |
| 20260505081003 | 84 | 124 | 3.5 | 6.1 | 0.00 | 0.36 | 0.36 | 78 | 1010.9 |
| 20260505080459 | 84 | 52 | 4.3 | 8.7 | 0.00 | 0.36 | 0.36 | 78 | 1010.6 |
| 20260505075955 | 84 | 40 | 7.8 | 15.6 | 0.00 | 0.36 | 0.36 | 80 | 1010.6 |
| 20260505075452 | 84 | 11 | 4.3 | 9.6 | 0.00 | 0.36 | 0.36 | 80 | 1010.6 |
| 20260505074949 | 84 | 70 | 3.5 | 7.8 | 0.00 | 0.36 | 0.36 | 80 | 1010.6 |
| 20260505074446 | 84 | 48 | 7.0 | 13.9 | 0.00 | 0.36 | 0.36 | 79 | 1010.6 |
| 20260505073943 | 84 | 34 | 5.2 | 13.0 | 0.00 | 0.36 | 0.36 | 79 | 1010.6 |
| 20260505073441 | 84 | 83 | 5.2 | 11.3 | 0.00 | 0.36 | 0.36 | 80 | 1010.6 |
| 20260505072938 | 84 | 90 | 5.2 | 8.7 | 0.00 | 0.36 | 0.36 | 79 | 1010.6 |
| 20260505072434 | 84 | 47 | 3.5 | 7.8 | 0.00 | 0.36 | 0.36 | 79 | 1010.6 |
| 20260505071930 | 84 | 65 | 2.6 | 7.8 | 0.00 | 0.36 | 0.36 | 79 | 1010.2 |
| 20260505071426 | 84 | 68 | 6.1 | 12.2 | 0.00 | 0.36 | 0.36 | 78 | 1010.2 |
| 20260505070925 | 84 | 49 | 8.7 | 17.4 | 0.00 | 0.36 | 0.36 | 77 | 1009.9 |
| 20260505070421 | 85 | 25 | 5.2 | 11.3 | 0.00 | 0.36 | 0.36 | 76 | 1009.9 |
| 20260505065916 | 85 | 35 | 7.8 | 12.2 | 0.00 | 0.36 | 0.36 | 77 | 1009.5 |
| 20260505065413 | 85 | 52 | 4.3 | 9.6 | 0.00 | 0.36 | 0.36 | 77 | 1009.9 |
| 20260505064910 | 85 | 46 | 7.8 | 11.3 | 0.00 | 0.36 | 0.36 | 77 | 1009.9 |
| 20260505064407 | 85 | 37 | 7.0 | 13.0 | 0.00 | 0.36 | 0.36 | 77 | 1009.9 |
| 20260505063906 | 85 | 46 | 6.1 | 12.2 | 0.00 | 0.36 | 0.36 | 77 | 1009.9 |
| 20260505063402 | 85 | 34 | 7.0 | 12.2 | 0.00 | 0.36 | 0.36 | 77 | 1009.5 |
| 20260505062858 | 85 | 43 | 8.7 | 13.9 | 0.00 | 0.36 | 0.36 | 77 | 1009.5 |
| 20260505062355 | 85 | 34 | 7.8 | 16.5 | 0.00 | 0.36 | 0.36 | 77 | 1009.5 |
| 20260505061852 | 85 | 39 | 8.7 | 14.8 | 0.00 | 0.36 | 0.36 | 77 | 1009.5 |
| 20260505061351 | 85 | 47 | 6.1 | 12.2 | 0.00 | 0.36 | 0.36 | 77 | 1009.5 |
| 20260505060848 | 85 | 34 | 7.0 | 12.2 | 0.00 | 0.36 | 0.36 | 77 | 1009.5 |
| 20260505060344 | 85 | 46 | 6.1 | 9.6 | 0.00 | 0.36 | 0.36 | 77 | 1009.5 |
| 20260505055840 | 85 | 43 | 5.2 | 12.2 | 0.00 | 0.36 | 0.36 | 78 | 1009.5 |
| 20260505055336 | 85 | 41 | 5.2 | 12.2 | 0.00 | 0.36 | 0.36 | 78 | 1009.5 |
| 20260505054834 | 84 | 57 | 3.5 | 7.8 | 0.00 | 0.36 | 0.36 | 79 | 1009.5 |
| 20260505054331 | 84 | 42 | 7.0 | 14.8 | 0.00 | 0.36 | 0.36 | 79 | 1009.5 |
| 20260505053829 | 84 | 43 | 5.2 | 10.4 | 0.00 | 0.36 | 0.36 | 80 | 1009.5 |
| 20260505053326 | 84 | 31 | 5.2 | 7.8 | 0.00 | 0.36 | 0.36 | 79 | 1009.5 |
| 20260505052822 | 84 | 56 | 3.5 | 8.7 | 0.00 | 0.36 | 0.36 | 79 | 1009.5 |
| 20260505052319 | 84 | 40 | 4.3 | 7.8 | 0.00 | 0.36 | 0.36 | 79 | 1009.5 |
| 20260505051817 | 84 | 41 | 5.2 | 10.4 | 0.00 | 0.36 | 0.36 | 78 | 1009.2 |
| 20260505051314 | 85 | 26 | 4.3 | 8.7 | 0.00 | 0.36 | 0.36 | 78 | 1009.2 |
| 20260505050812 | 85 | 28 | 5.2 | 9.6 | 0.00 | 0.36 | 0.36 | 80 | 1009.2 |
| 20260505050310 | 84 | 48 | 3.5 | 7.0 | 0.00 | 0.36 | 0.36 | 82 | 1009.2 |
| 20260505041740 | 87 | 53 | 5.2 | 11.3 | 0.00 | 0.32 | 0.32 | 73 | 1009.5 |
| 20260505041237 | 87 | 34 | 5.2 | 8.7 | 0.00 | 0.32 | 0.32 | 73 | 1009.5 |
| 20260505040734 | 87 | 34 | 5.2 | 9.6 | 0.00 | 0.32 | 0.32 | 73 | 1009.5 |
| 20260505040232 | 87 | 43 | 6.1 | 11.3 | 0.00 | 0.32 | 0.32 | 73 | 1009.5 |
| 20260505035729 | 87 | 81 | 5.2 | 8.7 | 0.00 | 0.32 | 0.32 | 74 | 1009.5 |
| 20260505035224 | 87 | 47 | 4.3 | 7.8 | 0.00 | 0.32 | 0.32 | 74 | 1009.5 |
| 20260505034721 | 87 | 54 | 4.3 | 9.6 | 0.00 | 0.32 | 0.32 | 73 | 1009.5 |
| 20260505034218 | 87 | 9 | 3.5 | 7.8 | 0.00 | 0.32 | 0.32 | 73 | 1009.5 |
| 20260505033715 | 87 | 62 | 4.3 | 8.7 | 0.00 | 0.32 | 0.32 | 73 | 1009.5 |
| 20260505033213 | 87 | 41 | 4.3 | 9.6 | 0.00 | 0.32 | 0.32 | 72 | 1009.5 |
| 20260505032711 | 87 | 23 | 5.2 | 12.2 | 0.00 | 0.32 | 0.32 | 72 | 1009.5 |
| 20260505032206 | 88 | 48 | 6.1 | 13.9 | 0.00 | 0.32 | 0.32 | 72 | 1009.9 |
| 20260505031704 | 88 | 42 | 5.2 | 12.2 | 0.00 | 0.32 | 0.32 | 72 | 1009.9 |
| 20260505031200 | 88 | 50 | 2.6 | 6.1 | 0.00 | 0.32 | 0.32 | 72 | 1009.9 |
| 20260505030657 | 87 | 39 | 7.0 | 11.3 | 0.00 | 0.32 | 0.32 | 72 | 1009.9 |
| 20260505030153 | 87 | 48 | 6.1 | 11.3 | 0.00 | 0.32 | 0.32 | 73 | 1009.9 |
| 20260505025649 | 87 | 31 | 5.2 | 11.3 | 0.00 | 0.32 | 0.32 | 73 | 1009.9 |
| 20260505025148 | 87 | 39 | 6.1 | 13.9 | 0.00 | 0.32 | 0.32 | 73 | 1009.9 |
| 20260505024645 | 87 | 58 | 5.2 | 8.7 | 0.00 | 0.32 | 0.32 | 73 | 1010.2 |
| 20260505024142 | 87 | 53 | 3.5 | 8.7 | 0.00 | 0.32 | 0.32 | 73 | 1009.9 |
| 20260505023639 | 87 | 60 | 4.3 | 13.9 | 0.00 | 0.32 | 0.32 | 73 | 1009.9 |
| 20260505023137 | 87 | 67 | 4.3 | 8.7 | 0.00 | 0.32 | 0.32 | 73 | 1010.2 |
| 20260505022634 | 87 | 62 | 6.1 | 12.2 | 0.00 | 0.32 | 0.32 | 72 | 1010.2 |
| 20260505022131 | 87 | 52 | 2.6 | 7.0 | 0.00 | 0.32 | 0.32 | 73 | 1010.2 |
| 20260505021627 | 87 | 59 | 3.5 | 8.7 | 0.00 | 0.32 | 0.32 | 73 | 1010.2 |
| 20260505021124 | 86 | 46 | 5.2 | 11.3 | 0.00 | 0.32 | 0.32 | 75 | 1010.2 |
| 20260505020620 | 86 | 89 | 3.5 | 6.1 | 0.00 | 0.32 | 0.32 | 75 | 1010.2 |
| 20260505020116 | 86 | 47 | 3.5 | 7.8 | 0.00 | 0.32 | 0.32 | 75 | 1010.6 |
| 20260505015613 | 86 | 83 | 3.5 | 8.7 | 0.00 | 0.32 | 0.32 | 74 | 1010.6 |
| 20260505015110 | 87 | 28 | 5.2 | 7.0 | 0.00 | 0.32 | 0.32 | 74 | 1010.6 |
| 20260505014607 | 86 | 85 | 3.5 | 9.6 | 0.00 | 0.32 | 0.32 | 74 | 1010.6 |
| 20260505014104 | 86 | 99 | 5.2 | 9.6 | 0.00 | 0.32 | 0.32 | 73 | 1010.6 |
| 20260505013601 | 86 | 91 | 2.6 | 3.5 | 0.00 | 0.32 | 0.32 | 74 | 1010.6 |
| 20260505013058 | 86 | 21 | 1.7 | 3.5 | 0.00 | 0.32 | 0.32 | 74 | 1010.6 |
| 20260505012556 | 86 | 56 | 1.7 | 6.1 | 0.00 | 0.32 | 0.32 | 73 | 1010.6 |
| 20260505012053 | 86 | 44 | 3.5 | 13.0 | 0.00 | 0.32 | 0.32 | 73 | 1010.6 |
| 20260505011548 | 86 | 51 | 3.5 | 8.7 | 0.00 | 0.32 | 0.32 | 73 | 1010.6 |
| 20260505011046 | 86 | 99 | 3.5 | 6.1 | 0.00 | 0.32 | 0.32 | 73 | 1010.9 |
| 20260505010541 | 86 | 141 | 1.7 | 4.3 | 0.00 | 0.32 | 0.32 | 73 | 1010.6 |
| 20260505010038 | 86 | 80 | 4.3 | 11.3 | 0.00 | 0.32 | 0.32 | 73 | 1010.9 |
| 20260505005534 | 86 | 74 | 1.7 | 5.2 | 0.00 | 0.32 | 0.32 | 73 | 1010.9 |
| 20260505005032 | 86 | 120 | 1.7 | 5.2 | 0.00 | 0.32 | 0.32 | 73 | 1010.9 |
| 20260505004529 | 86 | 96 | 1.7 | 4.3 | 0.00 | 0.32 | 0.32 | 74 | 1010.9 |
| 20260505004026 | 86 | 164 | 0.9 | 2.6 | 0.00 | 0.32 | 0.32 | 74 | 1010.9 |
| 20260505003523 | 85 | 124 | 3.5 | 8.7 | 0.00 | 0.32 | 0.32 | 73 | 1010.9 |
| 20260505003020 | 85 | 67 | 2.6 | 6.1 | 0.00 | 0.32 | 0.32 | 73 | 1010.9 |
| 20260505002521 | 85 | 45 | 7.0 | 15.6 | 0.00 | 0.32 | 0.32 | 73 | 1010.9 |
| 20260505002020 | 85 | 80 | 3.5 | 12.2 | 0.00 | 0.32 | 0.32 | 74 | 1010.9 |
| 20260505001517 | 85 | 104 | 5.2 | 9.6 | 0.00 | 0.32 | 0.32 | 75 | 1010.6 |
| 20260505001014 | 85 | 110 | 3.5 | 6.1 | 0.00 | 0.32 | 0.32 | 74 | 1010.6 |
| 20260505000511 | 85 | 69 | 6.1 | 11.3 | 0.00 | 0.32 | 0.32 | 74 | 1010.6 |
| 20260505000009 | 85 | 55 | 8.7 | 15.6 | 0.00 | 0.32 | 0.32 | 75 | 1010.6 |
| 20260504235505 | 85 | 117 | 3.5 | 7.0 | 0.00 | 0.32 | 0.32 | 77 | 1010.6 |
| 20260504235001 | 85 | 41 | 3.5 | 7.0 | 0.00 | 0.32 | 0.32 | 77 | 1010.6 |
| 20260504234459 | 85 | 79 | 4.3 | 8.7 | 0.00 | 0.32 | 0.32 | 77 | 1010.6 |
| 20260504233955 | 85 | 57 | 7.0 | 10.4 | 0.00 | 0.32 | 0.32 | 77 | 1010.6 |
| 20260504233451 | 84 | 47 | 3.5 | 9.6 | 0.00 | 0.32 | 0.32 | 79 | 1010.6 |
| 20260504232948 | 84 | 93 | 4.3 | 10.4 | 0.00 | 0.32 | 0.32 | 79 | 1010.6 |
| 20260504232445 | 84 | 49 | 7.8 | 12.2 | 0.00 | 0.32 | 0.32 | 80 | 1010.6 |
| 20260504231943 | 84 | 58 | 2.6 | 7.8 | 0.00 | 0.32 | 0.32 | 81 | 1010.6 |
| 20260504231439 | 84 | 54 | 5.2 | 8.7 | 0.00 | 0.32 | 0.32 | 81 | 1010.6 |
| 20260504230935 | 84 | 60 | 7.0 | 13.0 | 0.00 | 0.32 | 0.32 | 81 | 1010.6 |
| 20260504230432 | 84 | 104 | 5.2 | 12.2 | 0.00 | 0.32 | 0.32 | 82 | 1010.6 |
| 20260504225931 | 84 | 60 | 5.2 | 10.4 | 0.00 | 0.32 | 0.32 | 82 | 1010.6 |
| 20260504225427 | 84 | 87 | 6.1 | 20.0 | 0.00 | 0.32 | 0.32 | 81 | 1010.6 |
| 20260504224925 | 84 | 64 | 4.3 | 8.7 | 0.00 | 0.32 | 0.32 | 79 | 1010.6 |
| 20260504224421 | 84 | 95 | 4.3 | 8.7 | 0.00 | 0.32 | 0.32 | 78 | 1010.6 |